Home   Weather   Victoria   Past weeks

Flag for Seychelles Past Weather in Victoria, Seychelles — Yesterday and Last 2 Weeks

Now
79 °F

Passing clouds.


Feels Like: 82 °F
Forecast: 77 / 78 °F
Wind: 6 mph from West

Location: National Airport

Current Time: Jan 24, 2017 at 3:24:15 am

Latest Report: Jan 24, 2017 at 2:00 am


Visibility: N/A

Pressure: 29.83 "Hg

Humidity: 89%

Dew Point: 75 °F

Location of VictoriaLocation

Past Weather in Victoria — Graph

°F

Victoria Temperature Yesterday

Maximum temperature yesterday: 84 °F (at 3:00 pm)
Minimum temperature yesterday: 75 °F (at 5:00 am)
Average temperature yesterday: 79 °F

High & Low Weather Summary for the Past Weeks

 TemperatureHumidityPressure
High88 °F (Jan 10, 12:00 pm)100% (Jan 9, 2:00 am)29.98 "Hg (Jan 9, 2:00 am)
Low75 °F (Jan 9, 8:00 am)62% (Jan 10, 12:00 pm)29.74 "Hg (Jan 13, 3:00 pm)
Average80 °F84%29.86 "Hg
* Reported Jan 9 2:00 am — Jan 24 2:00 am, Victoria, Weather by CustomWeather, © 2017

Note: Actual official high and low records may vary slightly from our data, if they occured in-between our weather recording intervals... More about our weather records

Advertising

Victoria Weather History for the Previous 24 Hours

Scroll right to see more
 ConditionsComfort  
Time TempWeatherWind HumidityBarometerVisibility
2:00 am
Tue, Jan 24
79 °FPassing clouds.6 mph89%29.83 "HgN/A
1:00 am79 °FPartly cloudy.3 mph94%29.86 "HgN/A
12:00 am79 °FPartly cloudy.7 mph89%29.89 "HgN/A
11:00 pm
Mon, Jan 23
79 °FSprinkles. Partly cloudy.9 mph89%29.92 "HgN/A
10:00 pm79 °FPassing clouds.7 mph89%29.92 "HgN/A
9:00 pm77 °FPartly cloudy.6 mph83%29.92 "HgN/A
8:00 pm77 °FSprinkles. Partly cloudy.8 mph94%29.92 "HgN/A
7:00 pm81 °FPartly cloudy.5 mph84%29.89 "HgN/A
6:00 pm82 °FBroken clouds.7 mph79%29.86 "HgN/A
5:00 pm82 °FPassing clouds.9 mph74%29.83 "HgN/A
4:00 pm84 °FPassing clouds.9 mph70%29.83 "HgN/A
3:00 pm84 °FPassing clouds.7 mph70%29.86 "HgN/A
2:00 pm82 °FPassing clouds.7 mph74%29.86 "HgN/A
1:00 pm81 °FPartly sunny.8 mph79%29.89 "HgN/A
12:00 pm81 °FScattered clouds.7 mph84%29.92 "HgN/A
11:00 am81 °FPartly sunny.8 mph79%29.95 "HgN/A
10:00 am79 °FBroken clouds.6 mph84%29.95 "HgN/A
9:00 am77 °FLight rain. Partly sunny.3 mph94%29.95 "HgN/A
8:00 am75 °FSprinkles. Partly sunny.3 mph94%29.95 "HgN/A
7:00 am75 °FSprinkles. Partly sunny.2 mph94%29.95 "HgN/A
6:00 am75 °FLots of rain. Passing clouds.6 mph94%29.92 "Hg2 mi
5:00 am75 °FSprinkles. Passing clouds.5 mph94%29.89 "HgN/A
3:00 am79 °FLots of rain. Partly cloudy.9 mph89%29.86 "HgN/A
Weather by CustomWeather, © 2017

See weather overviewHow to use our weather pages